844  
ASUS43 KGLD 210208  
RWRGLD  
 
GOODLAND FORECAST AREA HOURLY WEATHER ROUNDUP  
NATIONAL WEATHER SERVICE GOODLAND KS  
800 PM MDT SAT APR 20 2019  
   
..OFFICIAL OBSERVATIONS
 
 
 
CITY SKY/WX TMP DP RH WIND PRES REMARKS
 
GOODLAND KS CLEAR 68 38 33 SE13 29.67S  
HILL CITY KS CLEAR 73 43 33 SE5 29.68S  
IMPERIAL NEB CLEAR 63 33 32 SE10 29.66R  
MCCOOK NEB PTCLDY 74 39 28 S10 29.65R  
AKRON CO MOCLDY 69 24 18 E7 29.71S  
BURLINGTON CO PTCLDY 69 27 20 S12 29.69S  
LIMON CO CLOUDY 70 17 13 S14 29.76R  

 
   
..UNOFFICIAL OBSERVATIONS
 
 
 
CITY SKY/WX TMP DP RH WIND PRES REMARKS
 
COLBY KS CLEAR 68 36 30 SE15 29.69R  
NORTON KS CLEAR 73 41 31 S10 29.71  
SHARON SPRINGS N/A 68 36 30 SE12 N/A  
KIT CARSON CO N/A 64 29 27 CALM N/A  

 
 
 
CLICK HERE TO GO TO PREVIOUS BULLETINS.

The Nexlab KS Page
The Nexlab CO Page
The Nexlab NE Page Main Text Page